Location: Hebron
(33.0265°N, 96.8636°W)
Time: 01:02:39
(UTC+00:00)

Cosmos 1812 - Pass Details

Date: 03 July 2022
Orbit: 508 x 515 km, 82.5° (Epoch: 16 August)

Event Time Altitude Azimuth Distance (km) Brightness Sun altitude
Rises 08:05:11 0° 350° (N) 2,632 7.1 -29.8°
Reaches altitude 10° 08:07:19 10° 347° (NNW) 1,740 6.0 -29.6°
Enters shadow 08:08:35 20° 344° (NNW) 1,238 5.0 -29.4°
